Weather History for Lawrenceville, IL

Change the Weather History Date:

Sunday, May 26, 2013

  Actual Average Record
Temperature  
Mean Temperature 64 °F 69 °F  
Max Temperature 74 °F 80 °F 93 °F (2012)
Min Temperature 54 °F 58 °F 45 °F (1992)
Degree Days  
Heating Degree Days 1 1  
Month to date heating degree days 78 77  
Since 1 July heating degree days 4927 4668  
Cooling Degree Days 0 5  
Month to date cooling degree days 94 83  
Year to date cooling degree days 116 109  
Growing Degree Days 14 (Base 50)    
Moisture  
Dew Point 54 °F    
Average Humidity 71    
Maximum Humidity 89    
Minimum Humidity 53    
Precipitation  
Precipitation 0.07 in 0.14 in 2.74 in (1986)
Month to date precipitation 5.07 4.96  
Year to date precipitation 22.77 16.94  
Sea Level Pressure  
Sea Level Pressure 30.21 in    
Wind  
Wind Speed 7 mph (ESE)    
Max Wind Speed 15 mph    
Max Gust Speed 20 mph    
Visibility 8 miles    
Events Rain    
T = Trace of Precipitation, MM = Missing Value Source: NWS Daily Summary

Daily Weather History Graph

Daily Weather History Graph

Search for Another Location

Airport:

Trip Planner

Search our weather history database for the weather conditions in past years. The results will help you decide how hot, cold, wet, or windy it might be!

Date:

Astronomy

May. 26, 2013 Rise Set
Actual Time 5:30 AM CDT 8:05 PM CDT
Civil Twilight 4:59 AM CDT 8:36 PM CDT
Nautical Twilight 4:20 AM CDT 9:14 PM CDT
Astronomical Twilight 3:37 AM CDT 9:57 PM CDT
Moon 9:52 PM CDT (5/26) 6:58 AM CDT (5/26)
Length of Visible Light 15h 37m
Length of Day
14h 35m
Waning Gibbous, 96% of the Moon is Illuminated
May 26
Waning Gibbous
May 31
Last Quarter
Jun 8
New
Jun 16
First Quarter
Jun 23
Full

Hourly Weather History & Observations

Time (CDT) Temp. Dew Point Humidity Pressure Visibility Wind Dir Wind Speed Gust Speed Precip Events Conditions
12:53 AM 55.0 °F 48.0 °F 77% 30.27 in 10.0 mi East 8.1 mph - N/A   Overcast
1:53 AM 55.0 °F 48.0 °F 77% 30.25 in 10.0 mi ESE 4.6 mph - 0.00 in   Overcast
2:53 AM 54.0 °F 48.9 °F 83% 30.25 in 10.0 mi East 6.9 mph - 0.00 in   Overcast
3:53 AM 54.0 °F 50.0 °F 86% 30.24 in 10.0 mi East 5.8 mph - 0.01 in   Overcast
4:53 AM 54.0 °F 50.0 °F 86% 30.23 in 9.0 mi ESE 4.6 mph - 0.00 in   Overcast
5:53 AM 54.0 °F 50.0 °F 86% 30.25 in 8.0 mi East 4.6 mph - N/A   Overcast
6:53 AM 55.0 °F 50.0 °F 83% 30.25 in 8.0 mi East 5.8 mph - N/A   Overcast
7:53 AM 55.9 °F 50.0 °F 80% 30.27 in 8.0 mi East 6.9 mph - N/A   Overcast
8:53 AM 55.0 °F 51.1 °F 86% 30.29 in 3.0 mi NE 5.8 mph - 0.05 in Rain Light Rain
9:53 AM 57.0 °F 52.0 °F 83% 30.27 in 6.0 mi East 6.9 mph - 0.00 in   Haze
10:53 AM 60.1 °F 54.0 °F 80% 30.27 in 6.0 mi ESE 6.9 mph - 0.01 in Rain Light Rain
11:53 AM 64.0 °F 55.0 °F 73% 30.27 in 7.0 mi SE 5.8 mph - 0.00 in   Overcast
12:53 PM 66.9 °F 55.0 °F 66% 30.25 in 8.0 mi ESE 8.1 mph - N/A   Clear
1:53 PM 69.1 °F 54.0 °F 58% 30.24 in 8.0 mi SE 4.6 mph - 0.00 in Rain Light Rain
2:53 PM 71.1 °F 55.9 °F 59% 30.21 in 8.0 mi ESE 9.2 mph - 0.00 in   Mostly Cloudy
3:53 PM 71.1 °F 54.0 °F 55% 30.16 in 9.0 mi SE 10.4 mph 19.6 mph N/A   Clear
4:53 PM 73.9 °F 57.9 °F 57% 30.14 in 8.0 mi SE 10.4 mph - N/A   Clear
5:53 PM 73.9 °F 57.9 °F 57% 30.13 in 8.0 mi SE 9.2 mph - N/A   Scattered Clouds
6:53 PM 72.0 °F 57.0 °F 59% 30.13 in 8.0 mi East 8.1 mph - N/A   Overcast
7:53 PM 66.9 °F 57.9 °F 73% 30.12 in 8.0 mi ESE 6.9 mph - N/A   Clear
8:53 PM 64.9 °F 57.0 °F 75% 30.12 in 9.0 mi East 6.9 mph - N/A   Clear
9:53 PM 64.9 °F 57.0 °F 75% 30.12 in 9.0 mi ESE 8.1 mph - N/A   Partly Cloudy
10:53 PM 63.0 °F 57.0 °F 81% 30.11 in 8.0 mi SE 5.8 mph - N/A   Partly Cloudy
11:53 PM 64.0 °F 57.0 °F 78% 30.09 in 8.0 mi SE 5.8 mph - N/A   Scattered Clouds